FW2359 Weather Reports


Display with metric or nautical units.
time (UTC)temp
F
wind
direction
speed
MPH
gust
MPH
rain 1hr
in
rain 24hr
in
rain mn
in
humidity
%
barometer
mb
20260508201531 64 242 15.0 25.0 0.00 0.00 0.00 43 1019.7
20260508200032 63 240 14.0 28.0 0.00 0.00 0.00 45 1019.7
20260508194529 63 240 15.0 25.0 0.00 0.00 0.00 45 1019.6
20260508193031 63 239 13.0 25.0 0.00 0.00 0.00 48 1019.7
20260508191608 61 243 9.0 20.0 0.00 0.00 0.00 49 1020.0
20260508184530 59 238 14.0 25.0 0.00 0.00 0.00 51 1019.9
20260508181532 55 236 11.0 24.0 0.00 0.00 0.00 54 1019.6
20260508180033 55 235 10.0 22.0 0.00 0.00 0.00 55 1019.6
20260508173030 56 266 9.0 16.0 0.00 0.00 0.00 58 1019.3
20260508170029 57 253 13.0 25.0 0.00 0.00 0.00 55 1018.9
20260508164530 57 252 13.0 24.0 0.00 0.00 0.00 57 1018.9
20260508163029 57 266 12.0 24.0 0.00 0.00 0.00 59 1019.2
20260508161530 57 260 14.0 23.0 0.00 0.00 0.00 60 1019.3
20260508160144 56 259 14.0 26.0 0.00 0.00 0.00 62 1019.2
20260508154533 57 250 15.0 24.0 0.00 0.00 0.00 63 1019.2
20260508153031 56 248 13.0 24.0 0.00 0.00 0.00 63 1018.9
20260508151605 56 242 13.0 28.0 0.00 0.00 0.00 61 1018.7
20260508144529 56 245 13.0 22.0 0.00 0.00 0.00 56 1018.2
20260508143032 56 244 11.0 22.0 0.00 0.00 0.00 57 1018.0
20260508141604 55 253 12.0 21.0 0.00 0.00 0.00 60 1017.9
20260508140105 55 260 11.0 20.0 0.00 0.00 0.00 64 1017.7
20260508133029 54 245 10.0 19.0 0.00 0.00 0.00 68 1017.4
20260508131530 53 251 11.0 22.0 0.00 0.00 0.00 68 1017.1
20260508130106 53 249 9.0 17.0 0.00 0.00 0.00 68 1017.2
20260508124532 53 246 9.0 15.0 0.00 0.00 0.00 67 1017.2
20260508123033 52 238 8.0 16.0 0.00 0.00 0.00 65 1017.3
20260508121531 53 234 6.0 12.0 0.00 0.00 0.00 64 1017.3
20260508120032 53 240 9.0 15.0 0.00 0.00 0.00 63 1017.3
20260508113030 53 246 9.0 17.0 0.00 0.00 0.00 61 1017.0
20260508111532 53 236 8.0 15.0 0.00 0.00 0.00 61 1016.9
20260508110031 52 228 6.0 16.0 0.00 0.00 0.00 62 1016.9
20260508104605 52 221 5.0 12.0 0.00 0.00 0.00 61 1016.9
20260508103031 52 240 6.0 12.0 0.00 0.00 0.00 60 1016.9
20260508101542 53 245 5.0 11.0 0.00 0.00 0.00 59 1017.0
20260508100032 53 252 6.0 12.0 0.00 0.00 0.00 59 1017.0
20260508093032 53 248 6.0 11.0 0.00 0.00 0.00 59 1016.8
20260508091531 53 250 6.0 12.0 0.00 0.00 0.00 58 1016.9
20260508090032 53 233 5.0 12.0 0.00 0.00 0.00 57 1016.8
20260508084533 53 228 5.0 10.0 0.00 0.00 0.00 56 1016.7
20260508083054 55 204 3.0 10.0 0.00 0.00 0.00 53 1016.7
20260508081531 55 250 7.0 11.0 0.00 0.00 0.00 53 1016.6
20260508080032 55 244 5.0 10.0 0.00 0.00 0.00 52 1016.7
20260508074647 56 263 6.0 12.0 0.00 0.00 0.00 51 1016.7
20260508073029 56 252 8.0 14.0 0.00 0.00 0.00 50 1016.6
20260508071531 57 250 9.0 14.0 0.00 0.02 0.00 49 1016.5
20260508070108 58 249 8.0 14.0 0.00 0.08 0.00 48 1016.5
20260508064530 58 252 9.0 15.0 0.00 0.08 0.08 46 1016.4
20260508063030 59 248 8.0 17.0 0.00 0.08 0.08 45 1016.4
20260508060029 60 248 9.0 16.0 0.00 0.08 0.08 44 1016.4
20260508054531 60 250 10.0 18.0 0.00 0.08 0.08 44 1016.4
20260508053031 61 244 10.0 16.0 0.00 0.08 0.08 43 1016.5
20260508051529 61 249 10.0 17.0 0.00 0.08 0.08 43 1016.4
20260508050030 61 248 11.0 18.0 0.00 0.08 0.08 42 1016.2
20260508044531 61 249 10.0 18.0 0.00 0.08 0.08 41 1016.1
20260508043030 62 249 9.0 15.0 0.00 0.08 0.08 40 1016.2
20260508040032 63 247 10.0 22.0 0.00 0.08 0.08 35 1015.8
20260508034605 63 250 10.0 19.0 0.00 0.08 0.08 33 1015.6
20260508033030 64 253 10.0 18.0 0.00 0.08 0.08 30 1015.4
20260508030033 66 250 15.0 23.0 0.00 0.08 0.08 24 1015.2
20260508024530 67 252 16.0 26.0 0.00 0.08 0.08 23 1015.0
20260508020108 69 244 13.0 25.0 0.00 0.08 0.08 22 1014.8
20260508014531 70 248 12.0 24.0 0.00 0.08 0.08 22 1014.9
20260508011529 70 248 10.0 21.0 0.00 0.08 0.08 23 1015.3
20260508010031 70 259 12.0 23.0 0.00 0.08 0.08 22 1015.4
20260508003029 70 258 11.0 20.0 0.00 0.08 0.08 21 1015.6
20260508001532 71 258 12.0 23.0 0.00 0.08 0.08 20 1015.5
20260508000032 71 259 14.0 23.0 0.00 0.08 0.08 19 1015.5
20260507234533 71 257 14.0 24.0 0.00 0.08 0.08 19 1015.4
20260507233032 71 253 16.0 26.0 0.00 0.08 0.08 21 1015.5
20260507231531 71 256 16.0 25.0 0.00 0.08 0.08 23 1015.6
20260507224529 71 254 16.0 25.0 0.00 0.08 0.08 29 1015.9
20260507223029 70 256 15.0 24.0 0.00 0.10 0.08 30 1015.9
20260507221607 70 257 15.0 25.0 0.00 0.12 0.08 31 1016.0
20260507220035 71 255 16.0 24.0 0.00 0.12 0.08 31 1016.1
20260507214533 71 255 15.0 26.0 0.00 0.12 0.08 31 1016.2
20260507213035 71 257 13.0 24.0 0.00 0.12 0.08 33 1016.4
20260507211541 70 251 13.0 26.0 0.00 0.12 0.08 34 1016.5
20260507210031 68 259 14.0 24.0 0.00 0.12 0.08 37 1016.6
20260507204607 68 260 15.0 25.0 0.00 0.12 0.08 37 1016.7